Change the Weather History Date:

Sunday, June 23, 2013

  Actual Average Record
Temperature  
Mean Temperature 81 °F 82 °F  
Max Temperature 90 °F 90 °F 97 °F (1944)
Min Temperature 72 °F 75 °F 68 °F (1910)
Degree Days  
Heating Degree Days 0 0  
Month to date heating degree days 0 0  
Since 1 June heating degree days 0 0  
Since 1 July heating degree days 400 538  
Cooling Degree Days 16 18  
Month to date cooling degree days 403 390  
Year to date cooling degree days 1378 1267  
Since 1 June cooling degree days 403 390  
Growing Degree Days 31 (Base 50)    
Moisture  
Dew Point 72 °F    
Average Humidity 80    
Maximum Humidity 100    
Minimum Humidity 59    
Precipitation  
Precipitation T in 0.27 in 9.88 in (1945)
Month to date precipitation 9.61 4.72  
Year to date precipitation 18.73 16.92  
Sea Level Pressure  
Sea Level Pressure 30.11 in    
Wind  
Wind Speed 5 mph (ESE)    
Max Wind Speed 16 mph    
Max Gust Speed 26 mph    
Visibility 10 miles    
Events Rain    
T = Trace of Precipitation, MM = Missing Value Source: NWS Daily Summary

Daily Weather History Graph

Daily Weather History Graph

Search for Another Location

Airport or City:

Trip Planner

Search our weather history database for the weather conditions in past years. The results will help you decide how hot, cold, wet, or windy it might be!

Date:

Astronomy

Jun. 23, 2013 Rise Set
Actual Time 6:34 AM EDT 8:29 PM EDT
Civil Twilight 6:08 AM EDT 8:56 PM EDT
Nautical Twilight 5:35 AM EDT 9:28 PM EDT
Astronomical Twilight 5:01 AM EDT 10:03 PM EDT
Moon 8:48 PM EDT (6/23) 6:45 AM EDT (6/23)
Length of Visible Light 14h 48m
Length of Day
13h 54m
Full, 100% of the Moon is Illuminated
Jun 23
Full
Jun 30
Last Quarter
Jul 8
New
Jul 15
First Quarter
Jul 22
Full

Hourly Weather History & Observations

Time (EDT) Temp. Heat Index Dew Point Humidity Pressure Visibility Wind Dir Wind Speed Gust Speed Precip Events Conditions
12:53 AM 73.0 °F - 71.1 °F 93% 30.12 in 10.0 mi East 4.6 mph - N/A   Scattered Clouds
1:53 AM 73.0 °F - 72.0 °F 96% 30.10 in 10.0 mi East 3.5 mph - N/A   Partly Cloudy
2:53 AM 73.9 °F - 72.0 °F 93% 30.09 in 10.0 mi ESE 5.8 mph - N/A   Scattered Clouds
3:53 AM 73.9 °F - 72.0 °F 93% 30.08 in 10.0 mi ESE 4.6 mph - N/A   Partly Cloudy
4:53 AM 73.0 °F - 72.0 °F 96% 30.08 in 10.0 mi Variable 3.5 mph - N/A   Clear
5:53 AM 73.0 °F - 72.0 °F 96% 30.09 in 10.0 mi ESE 4.6 mph - N/A   Clear
6:53 AM 73.0 °F - 73.0 °F 100% 30.09 in 10.0 mi Calm Calm - N/A   Scattered Clouds
7:53 AM 75.0 °F - 73.0 °F 94% 30.12 in 10.0 mi East 3.5 mph - N/A   Partly Cloudy
8:53 AM 78.1 °F - 73.9 °F 87% 30.12 in 10.0 mi Variable 3.5 mph - N/A   Partly Cloudy
9:53 AM 80.1 °F 84.5 °F 73.9 °F 81% 30.13 in 10.0 mi SSE 3.5 mph - N/A   Scattered Clouds
10:53 AM 82.0 °F 86.7 °F 72.0 °F 71% 30.14 in 10.0 mi Variable 5.8 mph - N/A   Mostly Cloudy
11:53 AM 84.0 °F 88.4 °F 70.0 °F 63% 30.14 in 10.0 mi SSE 5.8 mph - N/A   Mostly Cloudy
12:53 PM 84.9 °F 89.4 °F 70.0 °F 61% 30.14 in 10.0 mi Variable 6.9 mph - N/A   Mostly Cloudy
1:53 PM 84.9 °F 90.1 °F 71.1 °F 63% 30.12 in 10.0 mi SW 5.8 mph - N/A   Mostly Cloudy
2:53 PM 86.0 °F 91.5 °F 71.1 °F 61% 30.09 in 10.0 mi WSW 6.9 mph - N/A   Mostly Cloudy
3:53 PM 88.0 °F 93.8 °F 71.1 °F 57% 30.07 in 10.0 mi Variable 3.5 mph - N/A   Mostly Cloudy
4:53 PM 82.9 °F 87.5 °F 71.1 °F 67% 30.10 in 10.0 mi SE 15.0 mph 26.5 mph N/A   Mostly Cloudy
5:53 PM 80.1 °F 83.6 °F 71.1 °F 74% 30.09 in 10.0 mi SSE 6.9 mph - N/A   Overcast
6:53 PM 75.9 °F - 73.0 °F 91% 30.10 in 10.0 mi Calm Calm - N/A   Overcast
7:53 PM 78.1 °F - 71.1 °F 79% 30.10 in 10.0 mi East 4.6 mph - 0.00 in Rain Light Rain
8:53 PM 77.0 °F - 72.0 °F 84% 30.12 in 10.0 mi ENE 4.6 mph - 0.00 in   Overcast
9:53 PM 77.0 °F - 73.0 °F 88% 30.13 in 10.0 mi Variable 5.8 mph - N/A   Overcast
10:53 PM 77.0 °F - 73.0 °F 88% 30.15 in 10.0 mi Variable 4.6 mph - 0.00 in Rain Light Rain
11:53 PM 77.0 °F - 73.0 °F 88% 30.15 in 10.0 mi ESE 5.8 mph - 0.00 in   Mostly Cloudy